Flag for China Weather past 2 weeks in Guangzhou, Guangdong, China

Now
79 °F

Passing clouds.


Feels Like: 81 °F
Forecast: 72 / 87 °F
Wind: 8 mph from North

Location: Canton Airport

Current Time: Sep 21, 2014 at 2:25:40 AM

Latest Report: Sep 21, 2014 at 1:30 AM


Visibility: N/A

Pressure: 29.71 "Hg

Humidity: 61%

Dew point: 64 °F

Location of GuangzhouLocation

Historic Weather in Guangzhou — Graph

°F

Guangzhou temperature yesterday

Maximum temperature yesterday: 88 °F (at 1:00 PM)
Minimum temperature yesterday: 77 °F (at 5:00 AM)
Average temperature yesterday: 81 °F

Past Weeks' High & Low Weather Summary

 TemperatureHumidityPressure
High97 °F (Sep 7, 2:00 PM)100% (Sep 9, 4:30 PM)29.95 "Hg (Sep 9, 4:30 PM)
Low77 °F (Sep 6, 5:30 AM)44% (Sep 7, 3:00 PM)29.50 "Hg (Sep 15, 4:30 PM)
Average85 °F77%29.73 "Hg
* Reported Sep 5 9:00 PM — Sep 20 9:30 PM, Guangzhou, Weather by CustomWeather, © 2014

Note: Actual official high and low records may vary slightly from our data, if they occured in-between our weather recording intervals... More about our weather records

Advertising

Guangzhou weather history for previous 24 hours

 ConditionsComfort  
Time TempWeatherWind HumidityBarometerVisibility
9:30 PM
Sep 20
79 °FPassing clouds.8 mph65%29.71 "HgN/A
9:00 PM79 °FPassing clouds.8 mph65%29.71 "HgN/A
8:30 PM79 °FPassing clouds.6 mph70%29.71 "HgN/A
8:00 PM79 °FPassing clouds.8 mph70%29.68 "HgN/A
7:30 PM79 °FPassing clouds.10 mph70%29.68 "HgN/A
7:00 PM81 °FPassing clouds.10 mph66%29.68 "HgN/A
6:30 PM81 °FPassing clouds.10 mph66%29.65 "HgN/A
6:00 PM81 °FScattered clouds.10 mph66%29.65 "HgN/A
5:30 PM82 °FScattered clouds.13 mph62%29.65 "HgN/A
5:00 PM84 °FPartly sunny.13 mph58%29.65 "HgN/A
4:30 PM84 °FPartly sunny.13 mph58%29.65 "HgN/A
4:00 PM84 °FPartly sunny.15 mph55%29.65 "HgN/A
3:30 PM86 °FPartly sunny.15 mph55%29.65 "HgN/A
3:00 PM86 °FPartly sunny.15 mph55%29.65 "HgN/A
2:30 PM86 °FPartly sunny.15 mph52%29.65 "HgN/A
2:00 PM86 °FPartly sunny.15 mph55%29.68 "HgN/A
1:30 PM86 °FPartly sunny.13 mph59%29.68 "HgN/A
1:00 PM88 °FPartly sunny.15 mph55%29.68 "HgN/A
12:30 PM86 °FScattered clouds.13 mph59%29.68 "HgN/A
12:00 PM86 °FPartly sunny.13 mph59%29.71 "HgN/A
11:30 AM86 °FPassing clouds.10 mph59%29.71 "HgN/A
11:00 AM84 °FPassing clouds.10 mph62%29.74 "HgN/A
10:30 AM82 °FPassing clouds.10 mph66%29.74 "HgN/A
10:00 AM82 °FPassing clouds.13 mph66%29.74 "HgN/A
9:00 AM79 °FSunny.13 mph74%29.74 "Hg10 mi
8:30 AM79 °FPartly sunny.10 mph74%29.74 "HgN/A
8:00 AM79 °FPartly sunny.10 mph74%29.74 "HgN/A
7:30 AM79 °FPassing clouds.8 mph74%29.74 "HgN/A
7:00 AM77 °FPassing clouds.8 mph74%29.71 "HgN/A
6:30 AM77 °FPassing clouds.10 mph74%29.71 "HgN/A
6:00 AM77 °FClear.8 mph74%29.68 "Hg10 mi
5:30 AM77 °FClear.8 mph79%29.68 "Hg10 mi
5:00 AM77 °FClear.8 mph79%29.68 "Hg10 mi
4:30 AM79 °FClear.10 mph74%29.65 "Hg10 mi
4:00 AM79 °FClear.10 mph74%29.65 "Hg10 mi
3:30 AM79 °FClear.13 mph74%29.65 "Hg10 mi
3:00 AM79 °FClear.13 mph74%29.68 "Hg10 mi
2:30 AM81 °FClear.13 mph70%29.68 "Hg10 mi
2:00 AM81 °FPassing clouds.13 mph70%29.68 "HgN/A
Weather by CustomWeather, © 2014

See weather overviewHow to use our weather pages